Regional Weather Roundup
Issued by NWS

Home | Current Version | Previous Version | Text Only | Print | Product List | Glossary Off
Versions: 1 2 3 4 5 6 7 8 9 10 11 12 13 14 15 16 17 18 19 20 21 22 23 24 25 26 27 28 29 30 31 32 33 34 35 36 37 38 39 40 41 42 43 44 45 46 47 48 49 50

000
ASUS43 KMKX 301121
RWRWI

WISCONSIN REGIONAL WEATHER ROUNDUP
NATIONAL WEATHER SERVICE MILWAUKEE/SULLIVAN WI
600 AM CDT FRI SEP 30 2016

NOTE: "FAIR" INDICATES FEW OR NO CLOUDS BELOW 12,000 FEET WITH NO
SIGNIFICANT WEATHER AND/OR OBSTRUCTIONS TO VISIBILITY.

WIZ001-002-006>008-014>016-023>028-301200-
NORTHWEST WISCONSIN

CITY           SKY/WX    TMP DP  RH WIND       PRES   REMARKS
SUPERIOR ARPT  CLOUDY    53  51  92 E5        30.45R
ASHLAND        CLOUDY    53  51  93 NE12      30.45S
HAYWARD        CLOUDY    49  47  93 NE8       30.43S
SIREN          CLOUDY    51  50  93 E7        30.42S
CUMBERLAND     CLEAR     46  45  93 N3        30.40S FOG
RICE LAKE      CLEAR     47  46  97 CALM      30.41S FOG
CHETEK         NOT AVBL
LADYSMITH      CLOUDY    48  47  98 N5        30.41F FOG
EAU CLAIRE     CLEAR     48  48 100 NE5       30.36F
MENOMONIE      CLEAR     48  47  97 NW5       30.38S
NEW RICHMOND   CLEAR     47  46  99 NE3       30.39S FOG
OSCEOLA        FOG       46  46 100 CALM      30.43R VSB 1/4
$$

WIZ003>005-009-010-017-018-301200-
NORTH CENTRAL WISCONSIN

CITY           SKY/WX    TMP DP  RH WIND       PRES   REMARKS
MANITOWISH WTR NOT AVBL
ARBOR VITAE    CLEAR     44  44  97 N3        30.41S FOG
WOODRUFF       CLEAR     44  44  97 N3        30.41S FOG
RHINELANDER    CLEAR     46  46 100 CALM      30.40S
EAGLE RIVER    PTCLDY    43  43 100 CALM      30.40F FOG
LAND O LAKES   FOG       48  48 100 NE6       30.43S VSB 1/2
PHILLIPS       CLOUDY    46  46 100 N3        30.40S FOG
TOMAHAWK         N/A     42  41  97 CALM      30.39F FOG
MEDFORD        CLEAR     46  46 100 NE6       30.37S
MERRILL        CLEAR     46  46 100 N3        30.38R
$$

WIZ029-030-035-036-043>047-301200-
CENTRAL WISCONSIN

CITY           SKY/WX    TMP DP  RH WIND       PRES   REMARKS
WAUSAU         PTCLDY    50  47  89 VRB3      30.34R
MOSINEE        PTCLDY    48  48 100 N7        30.40R
MARSHFIELD     CLEAR     52  47  83 NE9       30.34R
STEVENS POINT  MOCLDY    48  48 100 CALM      30.34S
WAUPACA        CLOUDY    57  54  89 N5        30.31F
WAUTOMA        CLOUDY    56  53  90 NE8       30.30F
WISC RAPIDS    PTCLDY    52  49  89 NE9       30.34R
CAMP DOUGLAS   CLOUDY    48  48 100 NW3       30.31S
$$

WIZ011>013-019>022-031-037>040-048>050-301200-
NORTHEAST WISCONSIN

CITY           SKY/WX    TMP DP  RH WIND       PRES   REMARKS
ANTIGO         CLOUDY    49  49  97 CALM      30.36S
SHAWANO        CLOUDY    58  53  84 NE8       30.33S
OCONTO         NOT AVBL
STURGEON BAY   CLOUDY    61  56  83 NE9       30.32R
GREEN BAY      CLOUDY    58  57  97 N10       30.30S
MANITOWOC      CLOUDY    63  55  77 NE7       30.27F
APPLETON       MOCLDY    55  55 100 N14       30.28S
CLINTONVILLE   CLOUDY    55  50  82 NE7       30.32S
OSHKOSH        CLOUDY    58  55  90 N14       30.27F
$$

WIZ032>034-041-042-053>061-301200-
SOUTHWEST WISCONSIN

CITY           SKY/WX    TMP DP  RH WIND       PRES   REMARKS
LA CROSSE      MOCLDY    55  52  89 NW6       30.33R
SPARTA         PTCLDY    49  49  98 NE3       30.34R
VIROQUA        CLOUDY    53  52  97 NE6       30.32R
BOSCOBEL       CLOUDY    60  54  80 NE5       30.29R
PRAIRIE DU CHI CLOUDY    57  51  81 N3        30.29R
PLATTEVILLE    CLOUDY    58  56  95 N9        30.25S
$$

WIZ056-057-062-063-064-067-068-301200-
SOUTH CENTRAL WISCONSIN

CITY           SKY/WX    TMP DP  RH WIND       PRES   REMARKS
REEDSBURG      NOT AVBL
BARABOO/DELLS  CLOUDY    56  53  87 N7        30.28F
LONE ROCK      CLOUDY    58  54  86 N6        30.28S
MINERAL POINT  CLOUDY    57  55  94 N10       30.26S
MADISON        CLOUDY    57  55  93 N12       30.24F
MIDDLETON      CLOUDY    58  57  99 N9G16     30.25F
WATERTOWN      CLOUDY    59  58  97 N9        30.23S
MONROE         CLOUDY    55  55 100 N13       30.22S
JANESVILLE     CLOUDY    61  55  82 N7        30.20F
$$

WIZ051-052-058>065-066-070>072-301200-
SOUTHEAST WISCONSIN

CITY           SKY/WX    TMP DP  RH WIND       PRES   REMARKS
MILWAUKEE      LGT RAIN  60  56  86 N10       30.21S
WAUKESHA       CLOUDY    57  54  88 NE12G22   30.23S
MILWAUKEE/TIMM CLOUDY    59  52  77 NE12G20   30.23S
RACINE         CLOUDY    62  57  83 NE10      30.21S
BURLINGTON     CLOUDY    57  56  97 NE9       30.21R FOG
KENOSHA        CLOUDY    61  57  87 NE10G18   30.19S
FOND DU LAC    CLOUDY    60  57  89 NE9       30.27S
SHEBOYGAN      CLOUDY    60  55  83 NE15      30.26R
WEST BEND      CLOUDY    64  64 100 NE8       30.24R
JUNEAU         CLOUDY    58  55  91 N10       30.26S
$$

LSZ147-162-301200-
LAKE SUPERIOR

STATION/POSITION TIME  TEMP    WIND        PRES    WAVE
                       AIR SEA DIR/SP/G            HT/PER
                 (UTC) (F)     (DEG/KT/KT) (MB)    (FT/S)
W MID LAKE BUOY  1050   56 56   50/  8/ 12 1031.0F   1/ 5
DEVILS ISLAND    1100   53      40/ 12/ 12 1031.6F
SAXON HARBOR     1040   50     190/  3/  4 1030.5S
$$

LMZ867-665-643>646-301200-
LAKE MICHIGAN

STATION/POSITION TIME  TEMP    WIND        PRES    WAVE
                       AIR SEA DIR/SP/G            HT/PER
                 (UTC) (F)     (DEG/KT/KT) (MB)    (FT/S)
CHAMBERS ISLAND  1000   62      10/ 15/ 19 1026.4S
S GREEN BAY BUOY 1000   59 62   30/ 16/ 17 1025.6S
N MID LAKE BUOY  1050   63 65   80/ 17/ 21 1026.4R   4/ 5
NORTHPORT PIER   1000   63      40/ 10/ 16 1026.8S
SISTER BAY       1038   61      30/  5/ 10   N/A
KEWAUNEE LAKESHO 1000   61      30/  9/ 15 1025.2R
SHEBOYGAN LAKESH 1100   61      40/ 20/ 22 1024.0R
PORT WASHINGTON  1000   60      40/ 12/ 15 1024.0
ATWATER BUOY     1100   56 52  360/  8/ 12 1023.1R
MILWAUKEE LAKESH 1010   58      20/ 12/ 13   N/A
S MID LAKE BUOY  1050   63 68   60/ 17/ 19 1021.4R   5/ 6
KENOSHA   LAKESH 1100   62      40/ 17/ 20 1021.7S
$$

TC  - TEMPERATURE IN CELSIUS
VSB - VISIBILITY IN STATUTE MILES
WCI - WIND CHILL INDEX
HX  - HEAT INDEX




USA.gov is the U.S. government's official web portal to all federal, state and local government web resources and services.